Temp
9 9 9 8 8 8 8 8 8 7 7 7 7 7 7 7 7 6 6 6 6 6 6 6 6 6 6 5 5 5 4 4 4 4 3 3 3 3 3 3 3 3 2 2 1 1 1 0 0 0 0 0 1 1 1 1 1 0 0 0 -0 -0 -0 -1 -1 -1 -1 -2 -2
9 9 8 8 8 8 8 8 7 7 7 7 7 7 6 6 6 6 6 6 6 6 6 6 6 5 5 5 5 4 4 4 4 3 3 3 3 3 3 3 3 2 2 2 1 1 0 0 0 1 1 1 1 1 0 0 0 -0 -0 -0 -0 -1 -1 -1 -1 -2 -2 -2 -1
9 8 8 8 8 8 7 7 7 7 7 7 6 6 6 6 6 6 6 6 6 6 5 5 5 5 5 5 5 4 4 4 4 3 3 3 3 2 2 2 2 2 2 1 1 1 1 1 1 1 1 0 0 0 -0 -0 -0 -0 -0 -1 -1 -1 -1 -2 -2 -2 -2 -1 -1
8 8 8 8 8 7 7 7 7 7 6 6 6 6 6 6 6 6 6 5 5 5 5 5 5 5 5 5 5 5 4 4 4 3 3 3 3 2 2 2 2 2 1 1 1 1 1 1 0 0 -0 -0 -0 -0 -0 -0 -0 -1 -1 -1 -1 -2 -2 -2 -2 -2 -2 -2 -2
8 8 8 8 7 7 7 7 7 6 6 6 6 6 6 6 6 5 5 5 5 5 5 5 5 5 5 4 5 5 4 4 4 4 3 3 3 3 2 2 2 2 1 1 1 1 1 0 0 -0 -0 -0 -0 -0 -0 -0 -1 -1 -1 -2 -2 -2 -2 -2 -2 -2 -2 -2 -2
8 8 7 7 7 7 7 7 6 6 6 6 6 6 5 5 5 5 5 5 5 5 5 5 5 5 5 5 4 4 4 4 4 4 4 4 3 3 3 3 2 2 2 1 1 1 0 0 0 0 0 0 -0 -0 -1 -1 -1 -2 -2 -2 -2 -2 -2 -2 -2 -2 -2 -2 -2
7 7 7 7 7 7 7 6 6 6 6 6 5 5 5 5 5 5 5 5 5 5 5 5 5 5 5 4 4 4 4 4 4 4 4 4 4 3 3 3 2 2 2 1 1 1 0 0 0 0 0 -0 -0 -1 -1 -1 -2 -2 -2 -2 -2 -2 -2 -2 -2 -2 -2 -2 -2
7 7 7 7 7 6 6 6 6 6 5 5 5 5 5 5 5 5 5 5 4 4 4 4 5 4 4 4 4 4 4 4 4 4 4 4 3 3 3 2 2 2 1 1 1 1 1 1 1 0 0 -0 -1 -1 -2 -2 -2 -2 -2 -2 -2 -2 -2 -2 -2 -2 -2 -2 -2
7 7 7 7 6 6 6 6 6 5 5 5 5 5 5 5 4 4 4 4 4 4 4 4 4 4 4 4 4 4 3 3 3 3 3 3 3 3 3 2 2 2 2 1 1 1 1 1 0 0 -0 -1 -1 -2 -2 -2 -2 -2 -2 -2 -2 -1 -1 -2 -2 -2 -2 -2 -2
7 7 7 6 6 6 6 6 5 5 5 5 5 5 5 4 4 4 4 4 4 4 4 4 4 4 4 4 3 3 3 3 3 3 3 3 3 3 2 2 2 2 1 1 1 1 0 -0 -1 -1 -1 -1 -2 -1 -1 -1 -1 -1 -1 -1 -1 -1 -2 -2 -2 -2 -2 -2 -2
7 7 7 6 6 6 6 5 5 5 5 5 5 4 4 4 4 4 4 4 4 4 4 4 4 4 4 3 3 3 3 3 2 2 2 2 2 2 2 2 1 1 1 1 0 -0 -1 -1 -1 -1 -1 -1 -1 -1 -1 -1 -1 -1 -1 -1 -2 -2 -2 -2 -2 -2 -2 -2 -2
7 7 6 6 6 6 5 5 5 5 5 4 4 4 4 4 4 4 4 4 4 4 4 4 4 3 3 3 3 2 2 2 2 2 2 2 1 1 1 1 1 1 1 0 -0 -1 -1 -1 -1 -1 -1 -1 -1 -1 -1 -1 -1 -1 -2 -2 -2 -2 -2 -2 -2 -2 -2 -3 -3
7 6 6 6 6 5 5 5 5 4 4 4 4 4 4 4 4 4 4 4 4 4 3 3 3 3 3 2 2 2 2 2 2 2 1 1 1 1 1 1 0 0 -0 -0 -1 -1 -1 -1 -1 -1 -1 -1 -1 -1 -1 -2 -2 -2 -2 -2 -2 -2 -2 -2 -2 -3 -3 -3 -3
6 6 6 6 5 5 5 5 4 4 4 4 4 4 4 4 4 4 3 3 3 3 3 3 3 2 2 2 2 2 2 2 1 1 1 1 1 0 0 0 -0 -0 -1 -1 -1 -1 -1 -1 -1 -1 -2 -2 -2 -2 -2 -2 -2 -2 -2 -2 -2 -2 -2 -3 -3 -3 -3 -3 -3
6 6 5 5 5 5 5 4 4 4 4 4 4 3 3 3 3 3 3 3 3 3 3 3 2 2 2 2 2 1 1 1 1 1 1 0 0 -0 -0 -1 -1 -1 -1 -1 -1 -2 -2 -2 -2 -2 -2 -2 -2 -2 -2 -2 -2 -2 -2 -2 -3 -3 -3 -3 -3 -3 -3 -3 -3
5 5 5 5 5 5 4 4 4 4 4 4 3 3 3 3 3 3 3 3 3 3 2 2 2 2 2 1 1 1 1 1 0 0 0 -0 -0 -1 -1 -1 -1 -1 -2 -2 -2 -2 -2 -2 -2 -2 -2 -2 -2 -2 -2 -2 -2 -2 -2 -3 -3 -3 -3 -3 -3 -3 -3 -4 -4
5 5 5 5 4 4 4 4 4 4 4 3 3 3 3 3 3 3 3 2 2 2 2 2 2 1 1 1 1 1 0 0 -0 -0 -0 -1 -1 -1 -1 -1 -2 -2 -2 -2 -2 -2 -2 -2 -2 -2 -2 -2 -2 -2 -2 -2 -2 -3 -3 -3 -3 -3 -3 -3 -3 -4 -4 -4 -4
5 4 4 4 4 4 4 4 4 4 3 3 3 3 3 3 2 2 2 2 2 2 2 1 1 1 1 1 0 0 -0 -0 -0 -0 -1 -1 -1 -1 -1 -2 -2 -2 -2 -2 -2 -2 -2 -2 -2 -2 -2 -2 -2 -2 -2 -2 -3 -3 -3 -3 -3 -3 -3 -3 -4 -4 -4 -4 -4
4 4 4 4 4 4 4 4 4 3 3 3 3 3 2 2 2 2 2 2 2 1 1 1 1 1 0 0 -0 -0 -0 -0 -1 -1 -1 -1 -1 -2 -2 -2 -2 -2 -2 -2 -2 -2 -2 -2 -2 -2 -2 -2 -2 -2 -2 -3 -3 -3 -3 -3 -3 -3 -3 -3 -3 -4 -4 -4 -4
4 4 4 4 4 3 3 3 3 3 3 3 3 2 2 2 2 2 2 1 1 1 1 1 1 0 0 -0 -0 -0 -1 -1 -1 -1 -1 -1 -2 -2 -2 -2 -2 -2 -2 -2 -2 -2 -2 -2 -2 -2 -2 -2 -2 -2 -2 -3 -3 -3 -3 -3 -3 -3 -3 -3 -4 -4 -4 -4 -4
4 4 4 4 4 3 3 3 3 3 3 3 2 2 2 2 2 1 1 1 1 1 1 1 0 0 -0 -0 -1 -1 -1 -1 -1 -1 -1 -2 -2 -2 -2 -2 -2 -2 -2 -2 -2 -2 -2 -2 -2 -2 -2 -2 -2 -2 -3 -3 -3 -3 -3 -3 -3 -3 -3 -4 -4 -4 -4 -4 -4
4 4 4 4 4 3 3 3 3 3 3 2 2 2 2 2 1 1 1 1 1 0 0 0 0 -0 -0 -1 -1 -1 -1 -1 -1 -1 -1 -2 -2 -2 -2 -2 -2 -2 -2 -3 -3 -3 -3 -3 -2 -2 -2 -2 -3 -3 -3 -3 -3 -3 -3 -3 -3 -4 -4 -4 -4 -4 -4 -4 -5
4 4 4 4 4 3 3 3 3 2 2 2 2 2 2 1 1 1 1 0 0 0 -0 -0 -0 -0 -0 -1 -1 -1 -1 -1 -1 -1 -2 -2 -2 -2 -2 -2 -2 -2 -2 -3 -3 -3 -3 -3 -3 -3 -3 -3 -3 -3 -3 -3 -3 -4 -4 -4 -4 -4 -4 -4 -4 -4 -5 -5 -5
4 4 4 4 3 3 3 3 2 2 2 2 2 2 1 1 1 1 0 0 -0 -0 -0 -0 -0 -0 -1 -1 -1 -1 -1 -1 -1 -1 -2 -2 -2 -2 -2 -2 -2 -3 -3 -3 -3 -3 -3 -3 -3 -3 -3 -3 -3 -4 -4 -4 -4 -4 -4 -4 -4 -4 -4 -4 -5 -5 -5 -5 -6
4 4 4 3 3 3 2 2 2 2 2 2 2 1 1 1 1 0 -0 -0 -0 -1 -1 -1 -1 -1 -1 -1 -1 -1 -1 -1 -1 -2 -2 -2 -2 -2 -2 -3 -3 -3 -3 -3 -3 -3 -3 -3 -3 -4 -4 -4 -4 -4 -4 -4 -4 -4 -4 -4 -4 -4 -5 -5 -5 -5 -5 -6 -6
4 4 4 3 3 3 2 2 2 2 2 2 1 1 1 1 0 -0 -0 -1 -1 -1 -1 -1 -1 -1 -1 -1 -1 -1 -1 -2 -2 -2 -2 -2 -2 -3 -3 -3 -3 -3 -3 -3 -3 -3 -4 -4 -4 -4 -4 -4 -4 -5 -5 -5 -5 -5 -5 -5 -5 -5 -5 -5 -5 -5 -6 -6 -6
4 4 3 3 3 2 2 2 2 2 1 1 1 1 0 0 -0 -0 -1 -1 -1 -1 -1 -1 -1 -1 -1 -1 -1 -2 -2 -2 -2 -2 -3 -3 -3 -3 -3 -3 -3 -4 -4 -4 -4 -4 -4 -4 -4 -4 -5 -5 -5 -5 -5 -5 -5 -5 -5 -5 -5 -5 -5 -6 -6 -6 -6 -6 -6
3 3 3 3 2 2 2 2 1 1 1 1 1 1 0 -0 -0 -1 -1 -1 -1 -1 -1 -1 -1 -1 -2 -2 -2 -2 -2 -3 -3 -3 -3 -3 -3 -4 -4 -4 -4 -4 -4 -4 -4 -4 -4 -4 -5 -5 -5 -5 -5 -5 -5 -5 -5 -5 -5 -5 -5 -6 -6 -6 -6 -6 -6 -6 -6
3 3 3 2 2 2 1 1 1 1 1 1 1 0 0 -0 -0 -1 -1 -1 -1 -1 -1 -1 -2 -2 -2 -2 -2 -3 -3 -3 -3 -3 -4 -4 -4 -4 -4 -4 -4 -4 -4 -4 -4 -5 -5 -5 -5 -5 -6 -6 -6 -5 -6 -6 -6 -6 -6 -6 -6 -6 -6 -6 -6 -7 -7 -7 -7
3 3 3 2 2 2 1 1 1 1 1 1 0 0 -0 -0 -1 -1 -1 -1 -1 -1 -2 -2 -2 -2 -2 -2 -3 -3 -3 -3 -4 -4 -4 -4 -4 -4 -4 -4 -4 -4 -4 -5 -5 -5 -5 -6 -6 -6 -6 -6 -6 -6 -6 -6 -6 -6 -6 -6 -6 -6 -7 -7 -7 -7 -7 -7 -7
3 3 2 2 2 2 1 1 1 1 1 0 0 -0 -0 -1 -1 -1 -1 -1 -1 -2 -2 -2 -2 -3 -3 -3 -3 -3 -4 -4 -4 -4 -4 -4 -4 -4 -4 -4 -4 -5 -5 -5 -6 -6 -6 -6 -6 -6 -6 -6 -6 -6 -6 -6 -6 -6 -6 -6 -6 -7 -7 -7 -7 -7 -7 -7 -8
2 2 2 2 2 1 1 1 1 1 0 0 -0 -0 -1 -1 -1 -1 -1 -2 -2 -2 -2 -2 -3 -3 -3 -3 -3 -3 -4 -4 -4 -4 -4 -4 -4 -4 -5 -5 -5 -5 -6 -6 -6 -6 -6 -6 -6 -6 -6 -6 -6 -6 -6 -6 -6 -6 -7 -7 -7 -7 -7 -8 -8 -8 -8 -8 -8
2 2 2 1 1 1 1 1 1 0 0 -0 -1 -1 -1 -1 -1 -1 -2 -2 -2 -2 -3 -3 -3 -3 -3 -3 -3 -3 -3 -3 -4 -4 -4 -4 -5 -5 -5 -5 -6 -6 -6 -6 -6 -6 -6 -6 -6 -6 -6 -6 -6 -6 -6 -6 -7 -7 -7 -7 -7 -8 -8 -8 -8 -8 -8 -8 -8
2 1 1 1 1 1 1 0 0 -0 -0 -1 -1 -1 -1 -1 -2 -2 -2 -3 -3 -3 -3 -3 -3 -3 -3 -3 -3 -3 -3 -4 -4 -4 -5 -5 -5 -5 -5 -6 -6 -6 -6 -6 -6 -6 -6 -6 -6 -6 -6 -6 -6 -7 -7 -7 -7 -7 -7 -8 -8 -8 -8 -8 -8 -8 -8 -9 -9
1 1 1 1 1 1 0 -0 -0 -1 -1 -1 -2 -2 -2 -2 -2 -3 -3 -3 -3 -3 -3 -3 -3 -3 -3 -3 -3 -4 -4 -4 -4 -5 -5 -5 -5 -6 -6 -6 -6 -6 -6 -6 -6 -6 -6 -6 -6 -6 -7 -7 -7 -7 -7 -7 -7 -7 -8 -8 -8 -8 -8 -8 -9 -9 -9 -9 -9
1 0 0 0 0 -0 -0 -1 -1 -1 -1 -2 -2 -2 -2 -3 -3 -3 -3 -3 -3 -3 -3 -3 -3 -3 -3 -4 -4 -4 -5 -5 -5 -5 -5 -5 -6 -6 -6 -6 -6 -6 -6 -6 -6 -6 -6 -6 -7 -7 -7 -7 -7 -7 -7 -8 -8 -8 -8 -8 -9 -9 -9 -9 -9 -9 -9 -9 -9
0 -0 -0 -0 -1 -1 -1 -1 -2 -2 -2 -2 -2 -3 -3 -3 -3 -3 -3 -3 -3 -3 -3 -3 -3 -4 -4 -4 -4 -5 -5 -5 -5 -5 -5 -6 -6 -6 -6 -6 -6 -6 -6 -6 -6 -7 -7 -7 -7 -7 -7 -7 -7 -8 -8 -8 -8 -8 -9 -9 -9 -9 -9 -9 -9 -9 -9 -9 -9
-0 -1 -1 -1 -1 -1 -2 -2 -2 -2 -3 -3 -3 -3 -3 -3 -3 -3 -3 -3 -3 -3 -3 -3 -4 -4 -4 -4 -5 -5 -5 -5 -5 -5 -6 -6 -6 -6 -6 -6 -6 -6 -6 -7 -7 -7 -7 -7 -7 -7 -7 -8 -8 -8 -8 -8 -9 -9 -9 -9 -9 -9 -9 -9 -9 -9 -9 -9 -9
-1 -1 -1 -1 -2 -2 -2 -2 -3 -3 -3 -3 -3 -3 -3 -3 -3 -3 -3 -3 -3 -3 -3 -4 -4 -4 -4 -5 -5 -5 -5 -5 -5 -6 -6 -6 -6 -6 -6 -6 -6 -6 -7 -7 -7 -7 -7 -7 -7 -7 -8 -8 -8 -9 -9 -9 -9 -9 -9 -9 -9 -9 -9 -9 -9 -10 -10 -10 -10
-1 -1 -2 -2 -2 -2 -2 -3 -3 -3 -3 -3 -3 -3 -3 -3 -3 -3 -3 -3 -3 -4 -4 -4 -4 -4 -5 -5 -5 -5 -5 -6 -6 -6 -6 -6 -6 -6 -7 -7 -7 -7 -7 -7 -7 -7 -7 -7 -7 -8 -8 -8 -9 -9 -9 -9 -10 -10 -10 -10 -10 -10 -10 -10 -10 -10 -10 -10 -10
-1 -2 -2 -2 -2 -2 -3 -3 -3 -3 -3 -3 -3 -3 -3 -3 -3 -3 -4 -4 -4 -4 -4 -4 -4 -5 -5 -5 -5 -5 -6 -6 -6 -6 -6 -6 -7 -7 -7 -7 -7 -7 -7 -7 -7 -7 -7 -7 -8 -8 -8 -9 -9 -9 -10 -10 -10 -10 -10 -10 -10 -10 -10 -10 -11 -11 -11 -11 -11
Height
1503 1502 1501 1500 1499 1499 1498 1497 1496 1495 1494 1493 1493 1492 1491 1490 1489 1487 1486 1485 1484 1483 1482 1481 1480 1479 1477 1477 1476 1475 1475 1474 1474 1474 1474 1475 1475 1474 1474 1474 1473 1473 1473 1473 1473 1473 1473 1473 1473 1473 1474 1474 1475 1475 1475 1475 1475 1474 1474 1474 1474 1473 1473 1472 1472 1472 1473 1473 1474
1502 1501 1500 1499 1498 1497 1496 1496 1495 1494 1493 1492 1492 1491 1490 1489 1488 1487 1485 1484 1483 1482 1482 1481 1480 1478 1477 1477 1476 1475 1475 1475 1475 1475 1475 1475 1475 1475 1474 1473 1473 1473 1473 1473 1473 1473 1472 1473 1473 1473 1474 1474 1474 1473 1473 1473 1473 1472 1472 1472 1472 1471 1471 1471 1471 1471 1472 1472 1473
1501 1499 1498 1497 1497 1496 1495 1494 1493 1493 1492 1492 1491 1490 1489 1488 1487 1486 1485 1483 1483 1482 1481 1480 1479 1478 1477 1477 1476 1476 1475 1475 1475 1475 1475 1475 1475 1475 1474 1474 1473 1473 1473 1472 1472 1472 1472 1472 1472 1472 1472 1472 1472 1472 1471 1471 1471 1471 1470 1470 1469 1469 1469 1469 1470 1471 1472 1472 1473
1500 1498 1497 1496 1495 1494 1494 1493 1492 1492 1491 1490 1490 1489 1488 1487 1486 1485 1484 1483 1482 1482 1481 1480 1479 1478 1478 1477 1476 1476 1475 1475 1475 1475 1475 1475 1475 1475 1475 1474 1474 1473 1473 1472 1472 1472 1472 1472 1471 1471 1471 1470 1470 1470 1469 1469 1469 1468 1468 1468 1468 1468 1468 1468 1469 1470 1471 1471 1472
1498 1497 1496 1495 1494 1493 1493 1492 1492 1491 1490 1489 1488 1487 1487 1486 1485 1484 1483 1482 1482 1481 1481 1480 1479 1479 1478 1477 1477 1476 1475 1475 1475 1475 1475 1475 1475 1475 1475 1474 1474 1473 1473 1472 1472 1472 1471 1471 1471 1470 1470 1469 1469 1468 1468 1467 1467 1467 1467 1467 1467 1467 1468 1468 1469 1469 1470 1470 1470
1497 1496 1495 1494 1493 1492 1492 1491 1491 1490 1489 1488 1487 1486 1486 1485 1484 1483 1482 1482 1481 1481 1480 1480 1479 1478 1478 1477 1477 1477 1476 1476 1476 1476 1475 1475 1475 1474 1474 1474 1473 1473 1472 1472 1472 1471 1471 1470 1470 1469 1469 1468 1467 1467 1466 1466 1466 1465 1466 1466 1467 1467 1467 1467 1468 1468 1468 1468 1468
1497 1495 1494 1493 1492 1492 1491 1490 1489 1488 1488 1487 1486 1485 1485 1484 1483 1482 1482 1481 1481 1480 1480 1479 1478 1478 1477 1477 1477 1477 1477 1477 1476 1476 1475 1474 1473 1473 1472 1472 1472 1471 1471 1471 1470 1470 1469 1469 1468 1467 1467 1466 1465 1465 1464 1464 1465 1465 1465 1466 1466 1467 1467 1467 1467 1467 1467 1467 1467
1495 1494 1493 1492 1492 1491 1490 1489 1488 1487 1487 1486 1485 1484 1483 1483 1482 1482 1481 1481 1480 1480 1479 1478 1478 1477 1477 1477 1477 1477 1477 1477 1476 1475 1474 1473 1472 1472 1471 1470 1470 1470 1469 1469 1469 1468 1467 1467 1466 1465 1465 1464 1464 1464 1464 1464 1465 1465 1465 1465 1465 1465 1465 1465 1465 1465 1465 1465 1464
1494 1493 1492 1492 1491 1490 1489 1488 1487 1486 1485 1484 1483 1483 1482 1482 1481 1481 1480 1480 1479 1479 1478 1478 1477 1477 1477 1476 1476 1476 1476 1475 1475 1474 1473 1472 1472 1471 1470 1469 1469 1468 1467 1467 1467 1466 1465 1465 1464 1464 1463 1463 1463 1463 1464 1464 1464 1464 1464 1464 1464 1464 1464 1463 1463 1463 1463 1462 1462
1493 1492 1492 1491 1490 1489 1488 1487 1486 1485 1484 1483 1482 1482 1481 1480 1480 1479 1479 1479 1478 1478 1477 1477 1476 1476 1476 1475 1475 1474 1474 1474 1473 1473 1472 1471 1470 1469 1468 1467 1467 1466 1466 1465 1464 1464 1463 1463 1463 1463 1463 1463 1463 1463 1463 1463 1463 1462 1462 1462 1462 1462 1462 1462 1462 1461 1461 1460 1460
1492 1491 1490 1489 1488 1487 1487 1486 1484 1484 1483 1482 1481 1480 1480 1479 1478 1478 1478 1477 1477 1477 1476 1476 1476 1475 1475 1474 1473 1473 1473 1472 1472 1471 1470 1469 1469 1468 1467 1466 1466 1465 1464 1463 1463 1462 1462 1462 1462 1462 1462 1462 1462 1462 1462 1462 1461 1461 1461 1461 1460 1460 1460 1460 1460 1459 1459 1458 1458
1491 1490 1489 1488 1487 1486 1485 1484 1483 1482 1481 1480 1480 1479 1478 1478 1477 1477 1477 1476 1476 1476 1475 1475 1474 1474 1473 1473 1472 1472 1471 1471 1470 1469 1468 1468 1467 1467 1466 1465 1464 1464 1463 1462 1462 1462 1461 1461 1461 1461 1461 1461 1460 1460 1460 1460 1460 1459 1459 1459 1458 1458 1458 1458 1458 1457 1457 1456 1456
1489 1488 1487 1486 1485 1484 1483 1482 1481 1480 1480 1479 1478 1478 1477 1477 1476 1476 1475 1475 1475 1474 1474 1474 1473 1473 1472 1472 1471 1470 1470 1469 1468 1468 1467 1467 1466 1466 1465 1464 1463 1462 1462 1461 1461 1460 1460 1460 1459 1459 1459 1459 1459 1459 1458 1458 1458 1457 1457 1457 1457 1457 1456 1456 1456 1455 1455 1454 1454
1487 1486 1485 1484 1483 1482 1481 1480 1479 1479 1478 1477 1477 1477 1476 1475 1475 1474 1474 1474 1473 1473 1473 1472 1472 1471 1471 1470 1469 1469 1468 1467 1467 1466 1466 1465 1465 1464 1464 1463 1462 1462 1461 1460 1459 1459 1458 1458 1458 1458 1457 1457 1457 1457 1457 1457 1456 1456 1456 1455 1455 1454 1454 1454 1453 1453 1452 1452 1452
1486 1484 1483 1482 1481 1480 1479 1478 1477 1477 1477 1476 1476 1475 1474 1474 1473 1473 1473 1472 1472 1472 1471 1471 1470 1470 1469 1468 1468 1467 1467 1466 1466 1465 1465 1464 1464 1463 1463 1462 1462 1461 1460 1459 1458 1458 1457 1457 1457 1457 1456 1456 1456 1455 1455 1455 1454 1454 1453 1453 1453 1452 1452 1452 1451 1451 1450 1449 1449
1484 1483 1482 1481 1480 1479 1478 1477 1476 1475 1475 1474 1474 1473 1473 1472 1472 1472 1471 1471 1470 1470 1469 1469 1468 1468 1467 1467 1467 1466 1465 1465 1464 1464 1463 1463 1462 1462 1462 1461 1461 1460 1459 1458 1457 1457 1456 1456 1455 1455 1455 1454 1454 1453 1453 1453 1452 1452 1452 1451 1450 1450 1449 1449 1448 1448 1447 1447 1446
1483 1482 1482 1481 1479 1478 1477 1476 1475 1474 1473 1473 1472 1472 1472 1471 1470 1470 1470 1469 1469 1468 1467 1467 1467 1466 1466 1465 1465 1464 1464 1463 1463 1463 1462 1462 1462 1461 1461 1460 1460 1459 1458 1457 1457 1456 1455 1454 1454 1453 1453 1452 1452 1452 1451 1451 1450 1450 1449 1449 1448 1447 1447 1447 1446 1446 1445 1444 1443
1482 1481 1481 1480 1479 1478 1477 1475 1474 1473 1472 1471 1471 1470 1470 1469 1469 1468 1468 1467 1467 1467 1466 1465 1465 1465 1464 1464 1463 1463 1463 1462 1462 1462 1461 1461 1460 1460 1460 1459 1459 1458 1457 1457 1456 1455 1454 1453 1452 1452 1451 1451 1450 1450 1449 1448 1448 1447 1447 1446 1446 1445 1445 1444 1444 1443 1442 1442 1441
1480 1479 1478 1478 1477 1476 1475 1474 1472 1472 1471 1470 1469 1469 1468 1468 1467 1467 1467 1466 1465 1465 1464 1464 1463 1463 1463 1462 1462 1462 1462 1461 1461 1460 1460 1459 1459 1459 1458 1458 1457 1457 1456 1455 1454 1453 1452 1452 1451 1450 1449 1449 1448 1447 1447 1447 1446 1445 1445 1444 1443 1443 1442 1442 1442 1441 1440 1439 1439
1477 1476 1475 1475 1474 1473 1473 1472 1471 1470 1469 1468 1468 1467 1467 1467 1466 1466 1465 1464 1464 1463 1463 1462 1462 1462 1462 1461 1461 1461 1460 1460 1459 1459 1458 1458 1457 1457 1457 1456 1456 1455 1454 1454 1453 1452 1451 1450 1449 1448 1447 1447 1446 1446 1445 1444 1444 1443 1442 1442 1442 1441 1441 1440 1439 1439 1438 1437 1437
1475 1474 1473 1472 1471 1471 1470 1469 1469 1468 1467 1467 1466 1466 1465 1465 1464 1464 1463 1463 1462 1462 1461 1461 1461 1460 1460 1459 1459 1459 1458 1458 1457 1457 1457 1456 1456 1455 1455 1454 1454 1453 1452 1452 1451 1450 1449 1448 1447 1447 1446 1445 1444 1444 1443 1442 1442 1441 1441 1440 1439 1439 1438 1438 1437 1437 1436 1435 1434
1473 1472 1471 1470 1469 1468 1468 1467 1467 1467 1466 1465 1465 1464 1463 1463 1462 1462 1462 1462 1461 1460 1460 1459 1459 1458 1458 1457 1457 1457 1457 1456 1456 1455 1455 1454 1454 1453 1453 1452 1452 1451 1451 1450 1449 1448 1447 1447 1446 1445 1444 1443 1442 1442 1441 1440 1440 1439 1438 1438 1437 1437 1436 1436 1435 1434 1433 1432 1432
1472 1471 1469 1468 1467 1467 1466 1466 1465 1465 1464 1463 1463 1462 1462 1461 1461 1460 1460 1460 1459 1459 1458 1457 1457 1456 1456 1456 1455 1455 1454 1454 1454 1453 1453 1452 1452 1452 1451 1450 1450 1449 1449 1448 1447 1447 1446 1445 1444 1443 1442 1442 1441 1440 1439 1438 1437 1437 1436 1436 1435 1434 1434 1433 1432 1432 1431 1430 1429
1469 1468 1467 1466 1466 1465 1464 1464 1463 1463 1462 1462 1461 1461 1460 1460 1459 1459 1458 1458 1457 1457 1456 1455 1455 1454 1454 1454 1453 1453 1453 1452 1452 1452 1451 1451 1451 1450 1450 1449 1449 1448 1447 1447 1446 1445 1444 1443 1442 1442 1441 1440 1439 1438 1437 1436 1436 1435 1434 1433 1432 1432 1431 1430 1429 1428 1427 1426 1425
1467 1466 1465 1464 1463 1463 1462 1462 1462 1461 1461 1460 1460 1459 1458 1458 1457 1457 1457 1456 1455 1455 1454 1454 1453 1453 1452 1452 1452 1451 1451 1451 1450 1450 1450 1449 1449 1449 1448 1448 1447 1447 1446 1445 1444 1444 1442 1442 1440 1439 1438 1437 1437 1436 1435 1434 1433 1432 1432 1431 1430 1428 1427 1427 1426 1425 1424 1423 1422
1465 1464 1463 1462 1462 1461 1461 1460 1460 1459 1459 1458 1457 1457 1457 1456 1455 1455 1454 1454 1453 1453 1452 1452 1452 1452 1451 1451 1450 1450 1449 1449 1449 1448 1448 1447 1447 1447 1446 1446 1445 1445 1444 1443 1442 1442 1441 1439 1438 1437 1437 1436 1435 1434 1433 1432 1431 1430 1429 1428 1427 1426 1424 1423 1422 1421 1420 1419 1418
1463 1462 1461 1461 1460 1460 1459 1458 1458 1457 1457 1456 1456 1455 1454 1454 1453 1453 1452 1452 1451 1451 1451 1450 1450 1450 1449 1449 1449 1448 1448 1447 1447 1447 1446 1446 1445 1445 1444 1444 1443 1442 1442 1441 1440 1439 1438 1437 1436 1436 1435 1433 1432 1432 1431 1430 1429 1428 1427 1426 1424 1423 1422 1420 1419 1418 1417 1416 1415
1461 1460 1459 1459 1458 1458 1458 1457 1457 1456 1455 1454 1453 1453 1452 1452 1451 1451 1450 1450 1449 1449 1449 1449 1448 1448 1447 1447 1447 1447 1446 1446 1445 1444 1444 1443 1443 1442 1442 1441 1441 1440 1439 1438 1437 1437 1436 1435 1434 1433 1433 1432 1431 1430 1429 1427 1426 1425 1424 1423 1422 1420 1419 1417 1416 1415 1413 1412 1412
1460 1459 1458 1457 1457 1457 1456 1455 1455 1454 1453 1453 1452 1452 1451 1450 1450 1449 1448 1448 1447 1447 1447 1447 1446 1446 1446 1445 1445 1444 1444 1443 1443 1442 1442 1441 1441 1440 1440 1439 1438 1438 1437 1436 1435 1435 1434 1433 1432 1432 1431 1430 1429 1427 1426 1425 1424 1422 1421 1420 1419 1417 1416 1415 1413 1412 1411 1409 1408
1458 1457 1457 1456 1455 1455 1454 1454 1453 1453 1452 1452 1451 1450 1449 1449 1448 1447 1447 1446 1446 1445 1445 1445 1444 1444 1443 1443 1442 1442 1442 1442 1441 1441 1440 1439 1439 1438 1438 1437 1436 1436 1435 1434 1433 1432 1432 1431 1430 1430 1429 1428 1427 1425 1424 1422 1421 1420 1418 1417 1416 1414 1413 1412 1410 1409 1408 1407 1406
1457 1456 1455 1454 1454 1453 1453 1452 1452 1452 1451 1450 1449 1449 1448 1447 1447 1446 1445 1445 1444 1443 1443 1442 1442 1442 1442 1441 1441 1441 1440 1440 1439 1439 1438 1437 1437 1436 1436 1435 1434 1433 1433 1432 1431 1431 1430 1429 1428 1427 1427 1425 1424 1423 1422 1420 1419 1417 1416 1414 1413 1412 1410 1409 1407 1406 1405 1404 1403
1456 1455 1454 1453 1452 1452 1451 1451 1450 1450 1449 1448 1447 1447 1446 1446 1445 1444 1443 1443 1442 1442 1441 1441 1441 1441 1440 1440 1440 1439 1439 1438 1437 1437 1436 1435 1435 1434 1433 1432 1432 1431 1431 1430 1429 1429 1428 1427 1426 1425 1424 1423 1422 1420 1419 1418 1416 1415 1413 1412 1410 1409 1407 1406 1405 1404 1403 1402 1401
1454 1453 1452 1451 1451 1450 1449 1449 1448 1448 1447 1446 1446 1445 1445 1444 1443 1442 1442 1441 1441 1441 1440 1440 1440 1439 1439 1438 1438 1437 1437 1436 1435 1434 1434 1433 1432 1432 1431 1431 1430 1430 1429 1428 1427 1427 1426 1425 1424 1423 1422 1421 1419 1418 1417 1415 1413 1412 1410 1409 1407 1406 1405 1404 1403 1402 1401 1400 1399
1452 1452 1451 1450 1449 1448 1447 1447 1447 1446 1445 1444 1444 1443 1443 1442 1442 1441 1441 1441 1440 1440 1439 1439 1438 1438 1437 1437 1436 1435 1434 1434 1433 1432 1432 1431 1431 1430 1430 1429 1429 1428 1427 1427 1426 1425 1424 1423 1422 1421 1420 1418 1417 1416 1414 1412 1411 1409 1407 1406 1405 1404 1402 1402 1401 1400 1399 1398 1397
1451 1450 1449 1449 1448 1447 1446 1446 1445 1444 1444 1443 1443 1442 1442 1442 1441 1441 1440 1440 1439 1439 1438 1438 1437 1436 1436 1435 1434 1433 1432 1432 1432 1431 1430 1430 1429 1428 1428 1427 1427 1426 1426 1425 1424 1423 1422 1421 1420 1419 1417 1416 1415 1413 1411 1410 1408 1407 1405 1404 1402 1402 1400 1400 1399 1398 1397 1396 1395
1450 1449 1448 1448 1447 1446 1445 1445 1444 1443 1443 1442 1442 1442 1441 1441 1441 1440 1440 1439 1439 1438 1437 1437 1436 1435 1434 1433 1432 1432 1431 1431 1430 1429 1429 1428 1427 1427 1426 1426 1425 1425 1424 1423 1422 1421 1420 1419 1418 1417 1415 1413 1412 1410 1409 1407 1406 1404 1403 1402 1400 1399 1398 1397 1397 1396 1395 1394 1393
1448 1448 1447 1447 1446 1445 1445 1444 1443 1442 1442 1442 1441 1441 1441 1440 1440 1439 1439 1438 1437 1437 1436 1435 1434 1433 1432 1432 1431 1431 1430 1429 1429 1428 1427 1427 1426 1425 1425 1424 1423 1423 1422 1422 1420 1419 1418 1417 1416 1414 1413 1411 1409 1408 1406 1405 1403 1402 1401 1399 1398 1397 1396 1396 1395 1394 1393 1392 1392
1447 1447 1446 1446 1445 1444 1444 1443 1442 1442 1441 1441 1441 1440 1440 1439 1439 1438 1438 1437 1436 1435 1434 1433 1433 1432 1431 1430 1430 1429 1429 1428 1427 1427 1426 1425 1424 1423 1423 1422 1422 1421 1421 1420 1418 1417 1416 1415 1413 1412 1411 1409 1407 1406 1404 1402 1401 1400 1398 1397 1396 1395 1394 1393 1392 1392 1391 1390 1389
1445 1445 1445 1445 1444 1443 1443 1442 1442 1441 1441 1440 1440 1439 1439 1439 1438 1437 1437 1436 1435 1434 1433 1432 1431 1431 1430 1429 1428 1428 1427 1427 1426 1425 1424 1424 1423 1422 1421 1421 1420 1419 1419 1418 1417 1415 1414 1413 1411 1410 1408 1407 1405 1404 1402 1401 1399 1398 1397 1395 1394 1393 1392 1391 1390 1389 1388 1387 1387
1444 1444 1444 1444 1443 1442 1442 1441 1441 1440 1440 1440 1439 1439 1438 1438 1437 1436 1435 1434 1433 1432 1432 1431 1430 1429 1428 1428 1427 1427 1426 1425 1425 1424 1423 1422 1422 1421 1420 1419 1418 1417 1417 1416 1415 1413 1412 1411 1409 1408 1407 1405 1403 1402 1401 1399 1397 1396 1395 1394 1392 1391 1390 1389 1388 1387 1386 1385 1385
1442 1443 1442 1442 1442 1442 1441 1441 1440 1440 1440 1439 1439 1438 1437 1437 1436 1435 1434 1433 1432 1431 1431 1430 1429 1428 1427 1426 1426 1425 1425 1424 1423 1422 1422 1421 1420 1419 1418 1417 1416 1415 1414 1414 1412 1411 1410 1408 1407 1406 1405 1403 1402 1401 1399 1397 1396 1394 1393 1392 1391 1389 1388 1387 1386 1385 1385 1384 1383
Wind_Speed
22 21 20 20 21 22 22 24 25 26 27 27 27 26 26 26 25 25 25 24 24 23 22 21 21 20 19 17 15 13 11 9 8 10 13 16 18 20 22 23 23 24 24 24 24 23 22 21 20 19 17 17 18 21 24 26 27 27 27 27 27 26 24 21 17 14 13 14 15
21 20 20 21 21 22 23 24 25 26 27 26 26 25 25 25 24 24 24 23 22 21 20 19 18 17 16 14 12 10 8 8 9 11 14 16 18 19 21 22 23 23 23 23 22 22 21 19 18 19 20 23 26 28 29 30 30 29 29 28 26 23 19 15 13 12 13 15 17
20 20 20 21 22 23 24 25 26 26 26 25 24 24 24 24 23 23 22 22 20 19 18 17 16 15 13 12 10 9 8 9 10 12 15 16 16 17 18 19 20 21 21 21 21 21 21 22 23 24 26 27 28 29 30 30 31 30 29 26 22 18 14 12 12 13 15 17 18
20 20 21 22 23 24 25 26 26 26 25 24 23 23 23 23 23 22 22 21 19 17 16 15 15 13 12 11 10 10 10 10 12 14 15 15 16 16 16 17 18 18 19 20 21 23 25 27 28 28 28 28 29 29 30 30 29 27 23 19 15 13 12 12 13 15 16 18 19
20 21 22 23 24 25 26 26 26 25 25 24 23 23 22 22 22 22 21 19 18 16 15 14 14 12 11 10 11 11 10 10 11 13 15 16 17 18 19 19 20 20 21 22 24 26 27 28 28 28 28 29 30 30 29 27 23 18 14 12 11 12 13 14 15 16 18 19 21
20 21 22 23 25 26 26 26 26 25 25 25 24 23 22 22 22 21 20 18 17 16 14 14 13 12 11 10 10 10 10 11 12 14 16 18 20 22 23 24 25 26 26 26 26 27 27 27 28 29 30 30 28 25 22 18 15 12 11 11 12 14 15 16 17 18 20 22 23
20 22 23 24 25 26 26 26 26 26 25 25 24 24 23 22 21 20 19 18 16 15 14 14 13 12 11 11 11 12 14 16 18 19 20 21 22 23 24 25 25 26 27 27 27 27 27 28 29 30 29 26 22 18 15 13 12 13 13 14 15 16 16 18 19 21 22 23 24
21 22 24 25 26 26 26 26 26 26 25 25 24 23 23 21 20 19 18 17 16 16 15 15 15 14 13 12 14 17 20 22 24 25 26 25 25 25 25 24 24 24 25 26 27 27 28 29 29 27 25 21 17 14 13 13 14 15 16 17 17 18 19 20 21 22 22 23 24
22 24 25 26 26 26 26 26 26 26 26 25 24 23 22 21 20 19 18 18 17 18 18 17 17 16 15 16 20 23 25 26 27 27 28 29 28 28 27 26 25 24 24 24 24 24 24 23 22 20 17 14 13 13 14 15 16 17 18 19 20 20 21 21 22 23 23 24 25
24 25 26 26 26 26 26 26 26 25 25 24 23 22 22 21 20 19 19 19 19 20 19 19 19 18 19 22 25 27 27 27 27 27 28 28 29 29 28 27 26 25 24 23 21 19 17 15 14 12 12 12 14 15 16 17 18 19 20 21 21 22 22 23 23 24 24 25 26
25 26 26 26 25 25 25 25 25 25 24 23 22 22 21 20 20 20 20 20 20 20 21 21 21 21 23 26 28 29 28 28 27 27 27 27 27 27 26 26 25 24 22 19 16 13 11 10 10 12 13 14 16 17 18 19 20 21 22 22 23 23 24 24 25 25 26 26 27
26 26 26 25 25 25 25 25 25 24 23 22 21 21 20 20 20 20 20 20 21 21 22 22 23 24 26 28 29 29 28 28 27 27 26 26 25 24 23 22 21 20 17 14 11 9 9 10 12 14 15 17 18 19 20 21 22 23 23 24 24 25 25 26 26 26 27 28 29
27 26 25 25 25 25 25 24 23 23 22 21 20 20 20 20 20 20 21 21 22 22 23 24 25 26 28 28 29 28 28 27 27 26 24 23 22 21 21 20 18 15 12 11 10 10 11 13 15 16 17 19 20 21 22 23 24 24 25 25 26 26 27 27 27 28 28 29 30
26 25 25 24 24 24 24 23 23 22 21 20 20 20 20 20 20 21 21 22 23 24 25 26 26 27 27 28 27 27 27 26 25 24 23 22 21 20 19 16 14 12 10 10 11 12 13 15 16 18 19 20 21 22 23 24 25 25 26 26 27 27 28 28 28 28 29 29 30
25 24 24 24 24 23 23 23 23 22 21 20 20 20 20 21 21 21 22 23 24 25 26 26 27 27 27 27 26 26 25 24 23 22 21 21 20 18 15 13 11 11 11 12 13 14 15 16 18 19 20 22 23 24 24 25 26 26 27 27 28 28 28 28 28 28 28 29 29
24 24 23 24 24 23 24 24 24 23 22 21 21 21 21 21 22 22 23 24 25 25 26 26 26 26 26 25 25 24 23 22 21 21 20 19 17 14 12 11 11 12 13 14 15 16 17 18 19 21 22 23 24 25 26 26 27 28 28 28 29 29 29 28 28 28 28 29 29
23 23 24 24 24 24 25 25 25 24 23 22 21 21 21 22 23 23 24 24 24 25 25 25 25 25 25 24 23 22 21 20 20 20 19 17 15 13 12 12 13 14 15 16 17 18 19 20 21 22 23 24 25 26 27 27 28 28 29 29 29 29 29 29 29 29 29 29 30
22 22 23 24 25 25 26 26 25 24 23 22 22 22 22 23 23 24 24 24 24 24 24 24 24 24 23 22 21 20 20 20 20 19 18 16 14 13 13 14 15 16 17 18 19 20 21 22 23 24 25 26 27 27 28 28 29 29 29 29 29 29 29 29 30 30 30 31 31
21 21 22 23 24 26 26 26 26 24 23 22 22 22 23 23 23 23 23 23 23 23 24 24 23 23 22 21 20 21 21 21 20 18 17 15 15 15 15 16 17 18 19 20 21 21 22 23 24 25 26 27 27 28 28 29 29 29 30 30 30 30 31 31 31 32 32 32 33
22 22 23 24 24 25 26 25 25 24 23 23 22 22 22 23 23 23 23 23 23 23 23 23 23 22 21 21 21 21 21 20 19 17 16 16 16 16 17 18 18 19 20 21 21 22 23 24 25 25 26 27 27 28 29 29 30 30 31 31 32 32 32 32 33 33 33 34 34
24 24 25 25 25 24 24 24 24 23 23 23 22 22 22 22 22 23 23 23 23 23 23 23 22 22 22 22 22 21 20 19 19 18 18 18 18 18 19 19 19 20 21 21 22 22 23 23 24 25 25 26 27 28 29 30 31 32 32 33 33 33 33 33 34 34 35 35 35
26 26 27 26 25 23 22 23 23 23 23 22 22 22 22 22 22 22 22 22 22 22 22 22 23 23 23 23 22 21 21 20 20 20 20 20 20 20 20 20 21 22 22 22 22 22 23 23 23 24 25 26 27 28 30 31 32 33 33 33 34 34 34 34 34 35 35 35 36
28 27 27 25 23 22 21 22 22 22 22 22 22 21 21 21 21 21 21 21 21 21 22 23 23 24 24 24 23 23 22 22 22 22 22 22 22 22 22 23 23 23 23 24 24 24 24 24 24 25 26 27 28 29 31 32 33 34 34 34 34 35 35 35 35 35 36 36 36
28 28 27 24 22 20 20 21 22 22 22 21 21 20 20 20 20 20 20 20 20 21 23 24 25 25 25 25 24 23 23 23 23 23 24 24 24 24 24 24 24 24 24 25 25 25 25 25 26 26 27 28 29 30 31 33 34 34 35 35 35 35 36 36 36 36 36 36 36
28 28 26 24 21 20 20 21 21 22 21 20 19 19 19 19 19 19 19 20 21 22 24 25 26 26 25 24 24 24 24 24 25 25 25 25 25 25 25 25 24 24 25 25 25 25 26 26 27 27 28 28 29 30 32 33 34 35 35 35 36 36 37 37 37 37 37 37 36
28 27 25 23 22 21 21 21 21 21 20 19 18 17 17 18 18 18 19 20 22 23 24 25 25 24 24 23 23 23 24 25 25 26 26 26 25 25 25 25 25 25 25 25 26 26 27 27 27 28 28 28 29 31 32 34 35 35 35 35 36 36 37 38 38 38 38 38 38
27 26 24 23 22 21 22 22 21 20 18 17 17 17 17 17 18 18 20 21 22 23 24 23 23 22 22 22 22 23 24 24 25 25 25 25 25 25 25 25 25 25 26 26 27 27 27 27 27 28 28 29 30 32 33 34 34 34 35 35 36 36 37 38 39 39 39 39 39
26 25 24 22 22 22 21 21 20 19 18 17 16 16 17 17 18 19 20 21 22 22 22 22 21 21 21 21 22 23 24 24 24 24 24 24 24 24 25 25 26 27 27 27 27 27 27 27 27 28 29 30 31 32 33 33 34 34 35 35 36 37 38 38 39 39 39 39 39
24 24 23 22 22 21 21 21 20 19 18 17 17 17 17 18 19 19 20 21 21 21 21 21 21 21 21 22 23 23 24 24 23 23 23 24 24 25 26 27 27 28 28 27 27 27 27 27 27 28 29 30 31 31 32 33 33 34 35 36 37 38 38 39 39 39 39 39 38
24 23 23 22 22 22 22 21 20 19 18 18 18 18 18 19 19 20 20 21 21 21 21 22 22 22 22 23 23 23 23 23 23 23 24 25 26 27 28 28 27 27 26 26 25 26 26 27 28 29 29 30 30 31 32 33 34 35 36 37 38 38 38 38 38 38 37 37 36
25 24 23 23 23 22 22 21 20 20 19 19 19 19 20 20 20 21 21 22 22 23 23 23 23 23 23 23 22 22 22 23 24 25 27 27 27 27 27 26 25 25 24 24 24 25 26 27 28 29 29 30 31 32 33 34 35 36 37 37 38 37 37 37 36 36 36 35 34
26 25 25 24 23 22 22 21 21 21 21 21 21 21 21 21 21 22 23 23 24 24 23 23 22 22 22 22 22 23 24 26 27 28 27 27 26 25 24 23 23 23 23 24 25 26 27 28 29 29 30 31 31 33 34 35 36 36 37 37 37 36 35 35 35 34 34 33 31
28 27 26 24 23 22 22 22 23 23 23 22 21 21 21 21 22 23 23 24 23 23 22 21 21 22 22 24 25 26 27 27 27 26 25 24 23 23 22 22 22 23 24 25 26 27 28 29 29 30 31 32 33 34 35 35 36 36 36 36 35 34 34 33 33 33 32 30 29
30 29 26 24 23 23 23 23 22 22 21 20 20 20 21 22 22 22 21 21 21 20 20 21 22 23 25 26 26 26 26 25 25 23 22 22 22 22 22 23 23 24 25 26 27 28 29 29 30 31 32 33 34 34 35 35 36 35 35 34 33 33 32 32 31 31 29 28 27
30 27 25 23 21 21 20 19 19 19 18 18 19 19 20 20 20 19 19 19 20 20 21 23 24 25 26 26 25 24 23 23 22 22 22 22 23 23 24 25 25 26 26 27 28 28 29 30 31 32 33 33 34 35 35 35 35 34 33 33 32 32 32 31 30 29 28 27 25
27 24 22 20 18 17 16 16 16 17 17 18 18 18 18 18 18 18 19 20 21 22 23 24 24 24 24 23 23 22 22 22 23 23 24 24 25 25 25 26 26 26 27 27 28 29 30 31 32 32 33 34 34 34 34 34 33 32 32 31 31 31 31 30 29 29 28 26 25
22 20 19 17 16 16 16 16 16 17 17 16 16 16 16 17 18 19 20 21 21 22 22 22 22 22 22 22 23 23 23 24 24 25 25 25 25 26 26 27 27 27 27 28 28 29 30 31 32 32 33 33 33 33 33 32 32 31 31 30 31 31 30 30 29 29 28 26 25
18 17 17 17 17 17 16 16 16 15 15 15 15 15 16 17 18 18 19 20 20 21 21 22 22 23 23 24 24 24 25 25 25 25 25 25 26 26 26 27 27 27 27 28 29 30 30 31 32 32 32 32 32 31 31 31 30 30 30 30 30 31 30 30 29 28 27 26 25
17 17 17 16 16 16 15 14 14 14 14 14 14 15 15 16 16 17 18 19 20 21 22 22 23 24 24 25 25 25 25 25 25 25 25 25 25 26 26 26 27 27 28 28 29 30 31 31 31 31 31 30 30 29 29 29 29 30 30 30 30 30 30 29 28 27 26 25 25
17 16 16 15 14 13 13 13 13 13 13 13 14 14 14 15 16 17 18 19 21 21 22 23 23 24 24 25 25 24 24 24 24 24 24 24 25 25 26 26 27 27 28 28 29 30 31 31 31 30 29 28 27 27 27 28 28 29 29 29 29 29 28 27 26 25 24 25 25
15 14 13 12 12 12 12 12 12 12 13 13 13 14 14 15 16 18 19 20 21 22 22 23 23 24 24 24 24 24 23 23 23 23 23 24 24 25 25 26 27 28 28 29 29 30 30 30 30 29 27 26 26 26 26 26 27 28 28 28 27 26 26 25 25 24 24 25 25
Wind_Direction
317 319 320 323 325 328 330 331 332 333 332 331 327 323 319 317 315 315 315 316 317 318 319 321 323 325 327 328 327 322 312 296 270 242 222 212 208 209 211 214 217 220 222 225 228 230 231 232 234 238 245 255 266 272 275 275 274 274 275 278 283 287 291 295 301 310 319 323 318
317 319 322 324 326 329 331 332 332 332 331 328 325 321 318 316 314 313 313 314 314 315 317 319 321 323 325 325 323 315 298 274 248 226 213 208 210 213 216 220 222 225 227 230 232 233 235 240 248 257 266 271 273 273 273 273 273 274 276 280 285 289 293 300 309 317 319 315 309
319 321 324 326 329 330 331 332 331 330 328 326 322 319 317 315 313 312 311 311 311 312 314 316 319 320 320 318 315 304 284 260 235 219 212 212 216 220 224 227 230 232 233 235 238 243 251 259 264 268 270 270 270 270 270 272 274 276 280 284 287 292 300 310 317 317 312 305 302
321 324 326 328 330 331 331 330 329 328 326 324 321 318 315 314 312 310 308 308 308 309 310 312 314 314 312 309 304 296 281 260 237 225 221 224 228 233 237 240 241 242 243 246 251 258 263 267 268 268 269 269 270 271 273 275 277 280 285 289 295 303 311 315 313 309 303 300 298
324 326 328 330 331 331 330 329 328 327 325 323 320 317 314 312 310 308 306 305 304 303 303 305 306 306 304 300 297 293 284 267 253 244 241 243 248 252 255 257 257 256 255 257 260 264 267 268 269 271 272 274 276 278 280 282 284 289 295 303 309 312 311 307 304 300 298 296 295
326 328 330 331 331 330 329 328 327 326 324 322 319 315 312 310 308 305 303 301 299 297 295 296 296 295 294 292 293 295 292 285 277 269 264 262 263 264 265 265 264 263 263 263 264 267 270 273 275 277 280 284 287 290 293 297 302 309 313 313 309 305 302 299 296 294 293 292 292
328 330 331 331 330 329 328 327 326 324 322 320 315 313 311 307 305 301 298 295 293 290 287 287 287 286 285 288 293 301 304 302 296 289 280 272 267 263 262 262 262 262 264 266 268 272 276 279 283 286 290 295 301 307 314 318 318 315 309 303 300 298 295 292 291 291 290 290 289
329 330 330 330 329 328 327 325 324 322 319 316 311 309 308 305 302 298 294 291 287 284 282 281 281 281 281 288 300 308 310 307 303 298 291 283 275 268 265 264 265 268 271 274 277 281 284 287 290 295 300 306 314 321 323 319 310 303 299 296 294 292 290 289 288 288 287 288 288
330 330 329 328 327 326 325 323 321 319 316 313 309 307 306 305 300 295 292 288 283 281 281 280 279 280 285 296 306 310 310 308 305 302 298 292 286 280 277 276 278 281 285 288 291 293 295 298 301 306 312 317 317 313 307 303 298 295 292 290 289 288 287 286 286 286 286 287 287
328 327 326 325 325 324 323 322 320 318 315 312 308 306 306 303 298 293 289 286 283 282 281 281 281 285 294 303 308 310 310 308 306 303 299 294 290 286 284 284 286 291 295 298 301 304 306 309 313 314 311 306 300 297 294 291 289 288 287 287 287 287 286 286 286 287 287 287 288
325 324 324 324 324 323 323 321 320 318 315 311 306 304 302 300 295 291 289 286 284 282 281 283 287 294 302 307 309 310 309 308 305 301 296 291 287 285 285 287 290 294 297 299 302 304 305 303 299 295 291 289 287 286 285 285 285 285 286 287 287 287 287 287 287 288 288 288 289
321 321 322 323 323 323 322 321 319 317 314 310 305 302 299 296 293 291 288 285 283 283 284 288 294 301 306 309 309 309 308 306 302 297 292 287 285 286 289 292 294 295 294 292 290 286 282 280 280 279 279 280 281 283 284 285 286 287 288 288 288 288 288 288 288 288 289 289 289
318 320 321 322 323 323 322 321 319 316 313 309 305 302 298 294 292 290 288 286 286 287 291 296 301 305 308 309 309 308 306 303 299 294 289 287 288 292 294 295 294 291 286 279 273 270 269 271 273 275 277 279 281 283 285 287 288 288 289 289 289 288 289 289 289 289 289 289 289
317 319 321 322 323 323 323 321 319 316 312 308 305 302 298 295 293 292 290 290 291 293 297 301 304 306 307 308 308 306 304 301 297 293 290 291 294 296 296 293 288 282 275 271 269 269 270 272 275 277 280 282 283 285 286 287 288 289 289 289 289 289 289 289 289 289 289 289 289
317 319 321 323 324 324 323 321 319 315 311 306 304 301 298 296 296 295 294 294 296 298 300 303 304 306 307 307 306 304 301 299 296 294 294 295 296 295 291 285 279 274 272 272 272 274 276 279 281 282 284 285 286 286 287 288 289 289 290 290 290 290 290 290 290 290 290 290 290
320 322 323 324 324 324 322 320 317 314 310 306 303 301 300 298 298 297 297 297 298 299 300 302 304 305 306 305 303 301 298 296 295 295 295 295 293 288 282 277 275 275 276 277 278 280 282 283 284 285 286 286 287 288 289 289 290 291 291 291 291 291 292 292 292 292 292 292 292
323 324 325 324 324 323 321 318 315 312 309 305 303 301 301 300 300 299 298 298 298 298 299 301 302 302 302 300 299 297 295 293 293 292 291 289 284 278 275 276 277 279 280 281 282 282 283 284 285 286 287 288 289 291 291 292 292 293 293 293 293 293 293 293 293 294 294 294 294
323 324 324 323 322 320 318 315 312 309 306 303 302 301 302 302 301 300 298 297 296 296 297 298 298 298 297 295 294 293 291 290 289 287 285 281 277 275 276 278 279 280 281 281 282 282 282 284 285 287 289 291 292 293 294 294 294 294 294 294 294 294 294 295 295 295 295 295 295
317 317 319 319 318 316 314 311 309 306 304 302 301 302 303 303 302 300 297 296 294 294 293 293 293 293 292 291 291 290 289 287 285 282 278 275 274 275 276 277 278 279 280 280 281 281 283 284 286 288 290 292 294 295 296 296 296 295 295 295 295 295 295 295 295 295 295 295 295
309 310 312 314 314 313 310 307 305 303 301 300 301 302 303 304 302 300 297 294 292 290 289 289 288 288 288 289 290 289 286 283 279 275 272 270 271 271 273 274 276 277 278 279 281 282 284 286 287 290 292 294 296 297 297 297 296 295 295 295 295 295 295 295 295 295 295 295 294
307 309 311 313 314 312 308 304 301 300 299 299 300 302 303 304 302 300 297 293 290 287 286 285 285 285 287 288 288 285 281 277 272 268 266 266 267 268 270 272 273 274 276 279 282 284 286 288 289 291 293 295 297 297 297 297 296 295 295 294 294 294 294 294 294 294 294 294 293
308 311 314 316 315 311 306 300 298 296 296 297 298 300 302 302 301 299 295 291 287 284 283 282 282 283 285 286 285 281 276 271 267 265 264 264 265 266 267 269 270 272 275 279 282 285 287 289 291 293 295 296 297 297 297 296 295 295 294 294 294 294 294 294 294 294 293 293 293
312 315 317 318 316 311 304 298 295 293 293 295 297 299 300 300 299 296 292 288 284 282 280 280 281 282 283 284 282 278 274 269 265 264 264 265 265 266 267 268 270 273 276 279 282 285 288 291 293 295 296 297 297 296 295 295 295 295 295 295 295 295 295 294 294 294 293 293 293
315 318 320 320 317 309 301 295 292 291 291 292 295 296 298 297 295 292 289 285 281 279 279 279 281 282 283 283 281 277 272 268 264 264 265 266 268 269 271 272 275 277 280 282 285 288 291 294 296 297 297 297 296 295 294 294 295 295 296 296 296 296 296 295 295 295 295 295 294
317 320 321 320 316 308 299 293 290 289 290 291 293 294 295 293 291 288 284 281 278 278 278 280 281 282 282 281 279 275 271 268 266 265 267 268 270 272 274 277 279 282 284 287 289 292 295 297 298 299 299 298 296 295 294 294 295 296 297 298 298 298 297 297 296 296 296 296 296
318 320 320 318 313 305 297 292 290 289 289 290 291 291 290 289 286 283 280 278 277 277 279 280 281 281 280 278 276 273 270 269 268 268 269 270 271 273 276 279 282 285 287 290 292 295 297 299 300 300 299 298 296 295 295 295 296 297 298 298 298 298 298 298 297 297 297 297 297
317 319 318 315 309 302 296 292 290 288 287 287 287 286 285 284 282 279 277 276 276 277 278 279 279 278 277 275 273 270 269 268 269 270 271 272 275 277 280 283 286 288 291 293 296 298 300 301 301 301 299 297 296 295 296 296 297 298 298 298 298 298 298 298 298 298 298 298 299
316 316 314 310 305 299 294 290 287 284 283 282 282 282 281 279 277 275 275 275 275 276 276 276 276 275 274 272 270 269 268 268 270 272 274 277 281 285 289 291 293 295 297 299 301 303 303 303 302 300 298 297 297 297 297 298 299 299 299 299 299 299 299 299 299 300 300 300 300
314 312 309 304 299 293 288 284 282 281 281 281 280 279 278 276 275 274 274 274 274 274 274 273 272 271 270 269 268 268 269 270 273 277 282 286 291 295 298 300 301 302 303 305 305 305 304 303 301 299 298 298 298 299 300 300 300 300 300 300 300 300 300 300 300 301 301 301 302
311 309 305 299 293 287 283 281 280 280 280 279 278 276 275 274 274 275 275 275 274 273 272 271 270 269 269 269 269 271 273 277 282 287 293 297 300 302 304 305 307 308 308 308 307 305 303 301 300 300 300 300 301 301 302 302 301 301 301 301 301 301 302 302 301 301 302 302 302
310 309 305 299 292 286 282 280 279 278 276 275 273 272 272 273 274 275 275 275 274 272 271 269 269 269 270 272 276 280 284 289 294 299 302 305 306 307 309 310 311 311 310 308 305 303 302 301 301 302 302 303 303 303 303 303 302 302 302 302 303 303 303 302 302 302 302 303 303
310 309 306 300 292 284 279 275 274 273 272 271 271 271 272 274 275 276 276 275 274 272 271 271 272 275 279 283 288 293 297 300 303 306 308 310 311 313 314 314 313 311 309 306 304 303 303 303 303 304 304 304 304 304 304 304 303 304 304 304 304 303 303 302 302 302 303 303 304
310 309 306 300 291 282 275 271 269 270 270 272 273 274 276 277 278 278 277 276 275 275 276 279 283 288 293 297 301 303 306 308 310 313 315 316 316 316 316 315 312 309 307 305 304 304 304 305 305 305 305 305 305 305 305 305 305 305 305 305 304 303 302 302 302 302 303 304 305
311 310 306 299 289 280 273 270 269 270 273 276 278 280 281 282 282 281 281 280 281 283 287 292 296 300 303 306 308 310 312 314 317 318 319 318 317 315 313 311 309 307 306 306 305 305 306 306 306 305 306 306 306 306 306 307 307 307 306 305 304 302 301 301 301 302 303 304 304
312 309 304 296 287 280 275 274 274 277 280 284 286 286 286 286 286 287 288 289 292 295 298 301 304 307 309 311 314 316 318 319 319 319 317 315 313 311 310 308 308 307 307 306 306 306 306 306 306 306 306 307 307 308 308 308 308 307 305 304 302 301 300 300 301 302 303 303 302
311 306 299 292 287 284 282 284 286 288 290 291 291 291 291 293 294 295 297 298 300 302 305 307 309 312 314 316 318 319 319 318 317 315 313 311 310 309 308 308 307 307 307 306 306 306 306 306 306 307 308 309 309 310 310 309 307 306 304 302 301 300 300 300 301 301 301 301 300
306 300 294 290 289 290 292 293 295 297 298 298 298 299 300 301 302 303 303 305 307 308 310 312 315 316 317 317 317 316 316 314 313 312 311 310 309 308 308 307 307 307 306 306 306 306 306 307 308 309 310 311 311 310 309 308 306 304 302 300 299 299 300 300 301 301 301 300 300
298 294 291 291 293 296 299 301 304 305 307 308 308 309 308 308 308 309 310 312 314 316 317 318 318 317 316 315 314 314 313 312 311 310 310 309 309 308 308 307 306 306 306 306 307 307 308 309 310 311 312 312 311 310 308 306 304 302 300 300 300 300 301 301 302 302 302 302 304
292 290 292 295 298 302 307 310 312 314 315 315 315 314 314 314 315 317 320 322 323 323 322 320 318 316 315 313 312 311 311 310 310 309 309 309 308 308 308 307 307 307 307 308 308 309 310 311 312 312 312 311 310 308 306 304 302 301 300 300 301 302 302 303 304 305 307 308 310
290 292 295 301 306 311 315 318 319 320 319 318 317 317 319 321 324 327 329 330 329 326 323 320 317 315 313 312 311 310 310 310 309 309 309 309 308 308 308 308 308 308 309 310 311 311 312 312 313 312 311 310 308 306 304 302 302 301 301 302 303 305 306 307 309 311 313 314 313
292 297 303 310 316 319 321 322 322 321 319 318 319 320 323 327 330 332 332 331 329 326 323 320 317 314 313 311 311 311 311 310 310 309 309 309 309 309 309 309 310 310 311 312 313 313 313 313 313 312 311 309 307 305 304 303 303 303 304 306 308 309 311 313 314 316 316 315 314